Погода в Рогуне

Таджикистан     38°41′45″N   69°44′48″E
темп.,
°C
ветер,
м/с
пор.,
м/с
влажн.,
%
обл.,
%
осадки,
мм/ч
давл.,
гПа
погр.,
м
8 мая, сб
сб823:00+10ссз117898 0.3 101911
02:00+9с22755 0.1 101913
05:00+8с227681 0.1 101915
08:00+13св226693 0.0 1019280
11:00+17ююз115131 0.1 10171298
14:00+19ююз324318 0.1 10142270
17:00+18ююз335258 0.3 1014963
20:00+13зюз127489 0.3 101611
9 мая, вс
вс923:00+11ссз22765 0.8 101711
02:00+10с227468 0.0 101711
05:00+9с227452 0.0 101711
08:00+14св116389 0.0 1017268
11:00+18ю124124 0.0 10151519
14:00+20ю334048 0.0 10132482
17:00+18юз235214 0.1 1013924
20:00+13зсз11635 0.0 101311
10 мая, пн
пн1023:00+12ссз22675 0.0 101413
02:00+11с226693 0.0 101412
05:00+10с226659 0.0 101311
08:00+15св1260100 0.0 1013229
11:00+19ююв124698 0.0 10111407
14:00+21ююз344099 0.0 10092308
17:00+19юз4348100 0.1 10091724
20:00+14зюз226291 0.2 101113
11 мая, вт
вт1123:00+11зсз227492 1.5 101311
02:00+12ссз1171100 1.6 101311
05:00+11ссв2272100 3.4 101318
08:00+13всв2271100 0.9 1014143
11:00+15ююв2264100 3.9 1014923
14:00+15ю3373100 5.3 1014682
17:00+12юв2289100 13.6 1016157
20:00+10ю1190100 8.5 101754
12 мая, ср
ср1223:00+9св2290100 8.7 101725
02:00+8ссв229293 0.0 101623
05:00+7ссв22897 0.0 101619
08:00+11всв22765 0.0 1015316
11:00+15ююз22573 0.3 10141277
14:00+16ююз336099 0.8 10121160
17:00+14ююз3369100 2.0 1012885
20:00+10ю1190100 2.7 101414